Carlsbad, CA

8:56 AM PDT on July 23, 2017 (GMT -0700)
McClellan-Palomar

Weather History for KCRQ - December, 2012

Change the Weather History Date:

Friday, December 14, 2012

  Actual Average Record
Temperature  
Mean Temperature 54 °F -  
Max Temperature 59 °F 62 °F 70 °F (2013)
Min Temperature 50 °F 46 °F 42 °F (2013)
Degree Days  
Heating Degree Days 10    
Growing Degree Days 4 (Base 50)    
Moisture  
Dew Point 42 °F    
Average Humidity 66    
Maximum Humidity 86    
Minimum Humidity 45    
Precipitation  
Precipitation 0.15 in - - ()
Sea Level Pressure  
Sea Level Pressure 29.91 in    
Wind  
Wind Speed 7 mph (SW)    
Max Wind Speed 13 mph    
Max Gust Speed 24 mph    
Visibility 9 miles    
Events Rain    
Averages and records for this station are not official NWS values.
T = Trace of Precipitation, MM = Missing Value Source: NWS Daily Summary

Daily Weather History Graph

Daily Weather History Graph

Search for Another Location

Airport or City:

Trip Planner

Search our weather history database for the weather conditions in past years. The results will help you decide how hot, cold, wet, or windy it might be!

Date:

Astronomy

Dec. 14, 2012 Rise Set
Actual Time 6:44 AM PST 4:43 PM PST
Civil Twilight 6:17 AM PST 5:10 PM PST
Nautical Twilight 5:46 AM PST 5:41 PM PST
Astronomical Twilight 5:16 AM PST 6:12 PM PST
Moon 7:56 AM PST (12/14) 6:38 PM PST (12/14)
Length of Visible Light 10h 53m
Length of Day
9h 58m
Waxing Crescent, 3% of the Moon is Illuminated
Dec 14
Waxing Crescent
Dec 19
First Quarter
Dec 28
Full
Jan 4
Last Quarter
Jan 11
New

Hourly Weather History & Observations

Time (PST) Temp. Dew Point Humidity Pressure Visibility Wind Dir Wind Speed Gust Speed Precip Events Conditions
12:53 AM 54.0 °F 39.0 °F 57% 29.77 in 10.0 mi West 8.1 mph - N/A   Scattered Clouds
1:53 AM 54.0 °F 39.9 °F 59% 29.78 in 10.0 mi WSW 5.8 mph - N/A   Scattered Clouds
2:53 AM 54.0 °F 41.0 °F 62% 29.78 in 10.0 mi Variable 4.6 mph - N/A   Mostly Cloudy
3:53 AM 51.1 °F 39.9 °F 66% 29.79 in 10.0 mi Calm Calm - N/A   Partly Cloudy
4:53 AM 50.0 °F 42.1 °F 74% 29.80 in 10.0 mi Calm Calm - N/A   Mostly Cloudy
5:53 AM 54.0 °F 37.9 °F 55% 29.83 in 10.0 mi WSW 5.8 mph - N/A   Mostly Cloudy
6:53 AM 54.0 °F 37.9 °F 55% 29.86 in 10.0 mi West 6.9 mph - N/A   Scattered Clouds
7:53 AM 55.0 °F 37.0 °F 51% 29.88 in 10.0 mi WSW 10.4 mph - N/A   Scattered Clouds
8:53 AM 57.0 °F 37.9 °F 49% 29.91 in 10.0 mi WSW 11.5 mph - N/A   Mostly Cloudy
9:53 AM 59.0 °F 39.9 °F 49% 29.92 in 10.0 mi WSW 12.7 mph - N/A   Mostly Cloudy
10:53 AM 57.9 °F 37.9 °F 47% 29.92 in 10.0 mi SW 12.7 mph - N/A   Scattered Clouds
11:53 AM 57.9 °F 37.0 °F 46% 29.92 in 10.0 mi SW 10.4 mph - N/A   Partly Cloudy
12:53 PM 57.9 °F 37.9 °F 47% 29.92 in 10.0 mi WSW 12.7 mph 20.7 mph N/A   Overcast
1:53 PM 57.0 °F 36.0 °F 45% 29.92 in 10.0 mi WSW 8.1 mph - N/A   Overcast
2:53 PM 57.0 °F 39.0 °F 51% 29.93 in 10.0 mi West 8.1 mph - N/A   Overcast
3:30 PM 51.8 °F 46.4 °F 82% 29.94 in 1.8 mi West 9.2 mph 24.2 mph 0.04 in Rain Heavy Rain
3:39 PM 53.6 °F 46.4 °F 77% 29.95 in 3.0 mi West 5.8 mph - 0.06 in Rain Light Rain
3:53 PM 53.1 °F 46.0 °F 77% 29.94 in 9.0 mi West 4.6 mph - 0.06 in Rain Light Rain
4:53 PM 53.1 °F 46.0 °F 77% 29.94 in 10.0 mi Calm Calm - 0.01 in   Overcast
5:53 PM 52.0 °F 46.0 °F 80% 29.96 in 10.0 mi SE 4.6 mph - 0.04 in Rain Light Rain
6:53 PM 51.1 °F 46.9 °F 86% 29.97 in 10.0 mi ESE 3.5 mph - 0.02 in Rain Light Rain
7:53 PM 51.1 °F 46.0 °F 83% 29.98 in 10.0 mi SE 3.5 mph - 0.01 in Rain Light Rain
8:53 PM 51.1 °F 46.0 °F 83% 29.98 in 10.0 mi East 5.8 mph - 0.00 in   Overcast
9:53 PM 51.1 °F 45.0 °F 80% 29.99 in 10.0 mi ESE 5.8 mph - 0.00 in Rain Light Rain
10:53 PM 50.0 °F 45.0 °F 83% 29.99 in 10.0 mi East 5.8 mph - 0.01 in   Overcast
11:53 PM 50.0 °F 45.0 °F 83% 29.98 in 10.0 mi East 4.6 mph - 0.00 in Rain Light Rain